,,,PA_Meas_PMT16A,,PR_Meas_QMR101_102,,RH_Meas_QMH101,,SR_Meas_QMS101,,TA_Meas_QMH101,,GenWind,,GenWind,
date,time,status,PA,status,PR,status,RH,status,SR,status,TA,status,DirAvg,status,SpdAvg,
2009-05-13, 00:00:04,VALID,998.604,VALID,0,VALID,93.707,VALID,0,VALID,23.742,VALID,101,VALID,0.480469,
2009-05-13, 00:01:04,VALID,998.569,VALID,0,VALID,93.7985,VALID,0,VALID,23.742,VALID,107,VALID,0.714063,
2009-05-13, 00:02:04,VALID,998.545,VALID,0,VALID,93.9054,VALID,0,VALID,23.7616,VALID,129,VALID,0.757422,
2009-05-13, 00:03:04,VALID,998.498,VALID,0,VALID,93.9588,VALID,0,VALID,23.7597,VALID,133,VALID,0.88125,
2009-05-13, 00:04:04,VALID,998.488,VALID,0,VALID,93.9817,VALID,0,VALID,23.7793,VALID,137,VALID,1.01523,
2009-05-13, 00:05:04,VALID,998.486,VALID,0,VALID,93.9817,VALID,0,VALID,23.7793,VALID,136,VALID,1.0707,
2009-05-13, 00:06:04,VALID,998.483,VALID,0,VALID,93.9359,VALID,0,VALID,23.7988,VALID,134,VALID,0.922266,
2009-05-13, 00:07:04,VALID,998.462,VALID,0,VALID,93.8596,VALID,0,VALID,23.8006,VALID,129,VALID,0.939453,
2009-05-13, 00:08:04,VALID,998.438,VALID,0,VALID,93.8748,VALID,0,VALID,23.8183,VALID,129,VALID,0.869141,
2009-05-13, 00:09:04,VALID,998.453,VALID,0,VALID,93.8443,VALID,0,VALID,23.8201,VALID,129,VALID,0.735156,
2009-05-13, 00:10:04,VALID,998.432,VALID,0,VALID,93.8138,VALID,0,VALID,23.8183,VALID,129,VALID,0.487109,
2009-05-13, 00:11:04,VALID,998.395,VALID,0,VALID,93.7909,VALID,0,VALID,23.8183,VALID,130,VALID,0.502734,
2009-05-13, 00:12:04,VALID,998.397,VALID,0,VALID,93.8138,VALID,0,VALID,23.8006,VALID,130,VALID,0.3375,
2009-05-13, 00:13:04,VALID,998.359,VALID,0,VALID,93.8062,VALID,0,VALID,23.7988,VALID,150,VALID,0.44375,
2009-05-13, 00:14:04,VALID,998.352,VALID,0,VALID,93.7604,VALID,0,VALID,23.7793,VALID,150,VALID,0.371484,
2009-05-13, 00:15:04,VALID,998.325,VALID,0,VALID,93.7451,VALID,0,VALID,23.7793,VALID,150,VALID,0.4375,
2009-05-13, 00:16:04,VALID,998.299,VALID,0,VALID,93.7528,VALID,0,VALID,23.8201,VALID,150,VALID,0.438672,
2009-05-13, 00:17:04,VALID,998.302,VALID,0,VALID,93.7833,VALID,0,VALID,23.7988,VALID,150,VALID,0.170312,
2009-05-13, 00:18:04,VALID,998.316,VALID,0,VALID,93.8062,VALID,0,VALID,23.8006,VALID,150,VALID,0.291406,
2009-05-13, 00:19:04,VALID,998.32,VALID,0,VALID,93.7604,VALID,0,VALID,23.8006,VALID,150,VALID,0.208984,
2009-05-13, 00:20:04,VALID,998.278,VALID,0,VALID,93.768,VALID,0,VALID,23.8201,VALID,150,VALID,0.128906,
2009-05-13, 00:21:04,VALID,998.276,VALID,0,VALID,93.7528,VALID,0,VALID,23.8201,VALID,150,VALID,0.235156,
2009-05-13, 00:22:04,VALID,998.25,VALID,0,VALID,93.7375,VALID,0,VALID,23.8006,VALID,150,VALID,0.315234,
2009-05-13, 00:23:04,VALID,998.217,VALID,0,VALID,93.707,VALID,0,VALID,23.8006,VALID,110,VALID,0.533203,
2009-05-13, 00:24:04,VALID,998.174,VALID,0,VALID,93.6994,VALID,0,VALID,23.8201,VALID,90,VALID,0.607422,
2009-05-13, 00:25:04,VALID,998.135,VALID,0,VALID,93.6612,VALID,0,VALID,23.7793,VALID,90,VALID,0.536328,
2009-05-13, 00:26:04,VALID,998.101,VALID,0,VALID,93.6612,VALID,0,VALID,23.7988,VALID,89,VALID,0.610937,
2009-05-13, 00:27:04,VALID,998.099,VALID,0,VALID,93.6536,VALID,0,VALID,23.7793,VALID,89,VALID,0.842578,
2009-05-13, 00:28:04,VALID,998.06,VALID,0,VALID,93.6383,VALID,0,VALID,23.8006,VALID,94,VALID,0.876953,
2009-05-13, 00:29:04,VALID,998.08,VALID,0,VALID,93.6688,VALID,0,VALID,23.7811,VALID,102,VALID,1.07031,
2009-05-13, 00:30:04,VALID,998.023,VALID,0,VALID,93.6841,VALID,0,VALID,23.7597,VALID,103,VALID,1.26641,
2009-05-13, 00:31:04,VALID,998.029,VALID,0,VALID,93.6536,VALID,0,VALID,23.7811,VALID,100,VALID,1.19687,
2009-05-13, 00:32:04,VALID,997.975,VALID,0,VALID,93.6231,VALID,0,VALID,23.7811,VALID,90,VALID,0.818359,
2009-05-13, 00:33:04,VALID,998.015,VALID,0,VALID,93.5773,VALID,0,VALID,23.7597,VALID,90,VALID,0.426953,
2009-05-13, 00:34:04,VALID,998.002,VALID,0,VALID,93.5163,VALID,0,VALID,23.7616,VALID,26,VALID,0.566406,
2009-05-13, 00:35:04,VALID,997.994,VALID,0,VALID,93.501,VALID,0,VALID,23.7012,VALID,2,VALID,0.852734,
2009-05-13, 00:36:04,VALID,998.01,VALID,0,VALID,93.4857,VALID,0,VALID,23.6622,VALID,1,VALID,0.836719,
2009-05-13, 00:37:04,VALID,997.994,VALID,0,VALID,93.5239,VALID,0,VALID,23.6427,VALID,2,VALID,0.897656,
2009-05-13, 00:38:04,VALID,998.02,VALID,0,VALID,93.5773,VALID,0,VALID,23.6427,VALID,15,VALID,1.00039,
2009-05-13, 00:39:04,VALID,998.026,VALID,0,VALID,93.6231,VALID,0,VALID,23.6232,VALID,33,VALID,0.898047,
2009-05-13, 00:40:04,VALID,997.996,VALID,0,VALID,93.6917,VALID,0,VALID,23.6036,VALID,44,VALID,1.08164,
2009-05-13, 00:41:04,VALID,998.001,VALID,0,VALID,93.7299,VALID,0,VALID,23.5841,VALID,58,VALID,1.13359,
2009-05-13, 00:42:04,VALID,998.024,VALID,0,VALID,93.7985,VALID,0,VALID,23.6054,VALID,57,VALID,1.2332,
2009-05-13, 00:43:04,VALID,997.994,VALID,0,VALID,93.8214,VALID,0,VALID,23.5841,VALID,46,VALID,0.950391,
2009-05-13, 00:44:04,VALID,997.973,VALID,0,VALID,93.8367,VALID,0,VALID,23.5841,VALID,37,VALID,0.589063,
2009-05-13, 00:45:04,VALID,997.987,VALID,0,VALID,93.852,VALID,0,VALID,23.5859,VALID,20,VALID,0.635938,
2009-05-13, 00:46:04,VALID,997.959,VALID,0,VALID,93.8443,VALID,0,VALID,23.5859,VALID,11,VALID,0.775391,
2009-05-13, 00:47:04,VALID,997.963,VALID,0,VALID,93.8977,VALID,0,VALID,23.5646,VALID,11,VALID,0.567578,
2009-05-13, 00:48:04,VALID,997.98,VALID,0,VALID,93.8977,VALID,0,VALID,23.5664,VALID,11,VALID,0.752344,
2009-05-13, 00:49:04,VALID,997.983,VALID,0,VALID,93.8748,VALID,0,VALID,23.5451,VALID,30,VALID,0.764453,
2009-05-13, 00:50:04,VALID,997.961,VALID,0,VALID,93.8748,VALID,0,VALID,23.5664,VALID,36,VALID,0.705859,
2009-05-13, 00:51:04,VALID,997.975,VALID,0,VALID,93.8596,VALID,0,VALID,23.5256,VALID,49,VALID,0.846875,
2009-05-13, 00:52:04,VALID,997.949,VALID,0,VALID,93.8596,VALID,0,VALID,23.5256,VALID,52,VALID,0.918359,
2009-05-13, 00:53:04,VALID,997.947,VALID,0,VALID,93.8672,VALID,0,VALID,23.5274,VALID,60,VALID,0.854688,
2009-05-13, 00:54:04,VALID,997.905,VALID,0,VALID,93.8443,VALID,0,VALID,23.5469,VALID,63,VALID,0.642187,
2009-05-13, 00:55:04,VALID,997.9,VALID,0,VALID,93.8977,VALID,0,VALID,23.5469,VALID,64,VALID,0.629687,
2009-05-13, 00:56:04,VALID,997.9,VALID,0,VALID,93.8672,VALID,0,VALID,23.5469,VALID,58,VALID,0.529297,
2009-05-13, 00:57:04,VALID,997.892,VALID,0,VALID,93.8291,VALID,0,VALID,23.5451,VALID,19,VALID,0.573828,
2009-05-13, 00:58:04,VALID,997.908,VALID,0,VALID,93.7604,VALID,0,VALID,23.5664,VALID,6,VALID,0.733594,
2009-05-13, 00:59:04,VALID,997.913,VALID,0,VALID,93.8291,VALID,0,VALID,23.5451,VALID,3,VALID,0.683203,
2009-05-13, 01:00:04,VALID,997.907,VALID,0,VALID,93.8291,VALID,0,VALID,23.5664,VALID,3,VALID,0.585156,
2009-05-13, 01:01:04,VALID,997.882,VALID,0,VALID,93.7833,VALID,0,VALID,23.5451,VALID,4,VALID,0.727734,
2009-05-13, 01:02:04,VALID,997.892,VALID,0,VALID,93.7528,VALID,0,VALID,23.5646,VALID,22,VALID,0.799609,
2009-05-13, 01:03:04,VALID,997.894,VALID,0,VALID,93.6841,VALID,0,VALID,23.5646,VALID,22,VALID,0.760938,
2009-05-13, 01:04:04,VALID,997.871,VALID,0,VALID,93.6002,VALID,0,VALID,23.5664,VALID,22,VALID,0.724219,
2009-05-13, 01:05:04,VALID,997.843,VALID,0,VALID,93.5773,VALID,0,VALID,23.5451,VALID,44,VALID,0.675391,
2009-05-13, 01:06:04,VALID,997.812,VALID,0,VALID,93.5239,VALID,0,VALID,23.5469,VALID,64,VALID,0.766016,
2009-05-13, 01:07:04,VALID,997.82,VALID,0,VALID,93.4934,VALID,0,VALID,23.5256,VALID,77,VALID,0.782422,
2009-05-13, 01:08:04,VALID,997.773,VALID,0,VALID,93.4934,VALID,0,VALID,23.5256,VALID,78,VALID,0.443359,
2009-05-13, 01:09:04,VALID,997.764,VALID,0,VALID,93.4552,VALID,0,VALID,23.5469,VALID,78,VALID,0.107031,
2009-05-13, 01:10:04,VALID,997.766,VALID,0,VALID,93.44,VALID,0,VALID,23.5469,VALID,78,VALID,0.0695312,
2009-05-13, 01:11:04,VALID,997.739,VALID,0,VALID,93.4171,VALID,0,VALID,23.5274,VALID,78,VALID,0.00429688,
2009-05-13, 01:12:04,VALID,997.712,VALID,0,VALID,93.4476,VALID,0,VALID,23.5274,VALID,78,VALID,0.237891,
2009-05-13, 01:13:04,VALID,997.657,VALID,0,VALID,93.5086,VALID,0,VALID,23.5061,VALID,78,VALID,0.360938,
2009-05-13, 01:14:04,VALID,997.665,VALID,0,VALID,93.4934,VALID,0,VALID,23.5274,VALID,77,VALID,0.419922,
2009-05-13, 01:15:04,VALID,997.635,VALID,0,VALID,93.4705,VALID,0,VALID,23.5274,VALID,21,VALID,0.673828,
2009-05-13, 01:16:04,VALID,997.621,VALID,0,VALID,93.44,VALID,0,VALID,23.5061,VALID,17,VALID,0.764063,
2009-05-13, 01:17:04,VALID,997.598,VALID,0,VALID,93.44,VALID,0,VALID,23.5274,VALID,16,VALID,0.883984,
2009-05-13, 01:18:04,VALID,997.625,VALID,0,VALID,93.44,VALID,0,VALID,23.4866,VALID,16,VALID,0.917969,
2009-05-13, 01:19:04,VALID,997.606,VALID,0,VALID,93.4705,VALID,0,VALID,23.5079,VALID,16,VALID,0.896094,
2009-05-13, 01:20:04,VALID,997.574,VALID,0,VALID,93.5086,VALID,0,VALID,23.4866,VALID,16,VALID,0.901953,
2009-05-13, 01:21:04,VALID,997.584,VALID,0,VALID,93.5086,VALID,0,VALID,23.4671,VALID,16,VALID,0.714844,
2009-05-13, 01:22:04,VALID,997.594,VALID,0,VALID,93.5697,VALID,0,VALID,23.4475,VALID,16,VALID,0.674219,
2009-05-13, 01:23:04,VALID,997.56,VALID,0,VALID,93.6002,VALID,0,VALID,23.4493,VALID,16,VALID,0.682422,
2009-05-13, 01:24:04,VALID,997.546,VALID,0,VALID,93.6383,VALID,0,VALID,23.428,VALID,16,VALID,0.658203,
2009-05-13, 01:25:04,VALID,997.528,VALID,0,VALID,93.7223,VALID,0,VALID,23.428,VALID,28,VALID,0.712891,
2009-05-13, 01:26:04,VALID,997.536,VALID,0,VALID,93.768,VALID,0,VALID,23.4493,VALID,49,VALID,0.773828,
2009-05-13, 01:27:04,VALID,997.528,VALID,0,VALID,93.8367,VALID,0,VALID,23.4298,VALID,49,VALID,0.642969,
2009-05-13, 01:28:04,VALID,997.526,VALID,0,VALID,93.852,VALID,0,VALID,23.4493,VALID,40,VALID,0.533594,
2009-05-13, 01:29:04,VALID,997.508,VALID,0,VALID,93.852,VALID,0,VALID,23.4298,VALID,39,VALID,0.560156,
2009-05-13, 01:30:04,VALID,997.448,VALID,0,VALID,93.8748,VALID,0,VALID,23.4493,VALID,37,VALID,0.823047,
2009-05-13, 01:31:04,VALID,997.43,VALID,0,VALID,93.913,VALID,0,VALID,23.4493,VALID,37,VALID,0.78125,
2009-05-13, 01:32:04,VALID,997.414,VALID,0,VALID,93.9359,VALID,0,VALID,23.428,VALID,37,VALID,0.821484,
2009-05-13, 01:33:04,VALID,997.393,VALID,0,VALID,93.9435,VALID,0,VALID,23.428,VALID,26,VALID,0.775391,
2009-05-13, 01:34:04,VALID,997.385,VALID,0,VALID,93.9664,VALID,0,VALID,23.4298,VALID,10,VALID,0.792578,
2009-05-13, 01:35:04,VALID,997.345,VALID,0,VALID,93.9435,VALID,0,VALID,23.4085,VALID,6,VALID,0.737109,
2009-05-13, 01:36:04,VALID,997.338,VALID,0,VALID,93.9435,VALID,0,VALID,23.4298,VALID,6,VALID,0.631641,
2009-05-13, 01:37:04,VALID,997.335,VALID,0,VALID,93.9511,VALID,0,VALID,23.428,VALID,6,VALID,0.532812,
2009-05-13, 01:38:04,VALID,997.287,VALID,0,VALID,93.9817,VALID,0,VALID,23.4103,VALID,6,VALID,0.333594,
2009-05-13, 01:39:04,VALID,997.305,VALID,0,VALID,93.9817,VALID,0,VALID,23.4085,VALID,6,VALID,0.236719,
2009-05-13, 01:40:04,VALID,997.249,VALID,0,VALID,94.0122,VALID,0,VALID,23.4085,VALID,6,VALID,0.420703,
2009-05-13, 01:41:04,VALID,997.216,VALID,0,VALID,94.0351,VALID,0,VALID,23.4298,VALID,44,VALID,0.722266,
2009-05-13, 01:42:04,VALID,997.188,VALID,0,VALID,94.0274,VALID,0,VALID,23.4298,VALID,44,VALID,0.758203,
2009-05-13, 01:43:04,VALID,997.18,VALID,0,VALID,93.9969,VALID,0,VALID,23.4298,VALID,44,VALID,0.573828,
2009-05-13, 01:44:04,VALID,997.136,VALID,0,VALID,94.0274,VALID,0,VALID,23.4298,VALID,44,VALID,0.760156,
2009-05-13, 01:45:04,VALID,997.111,VALID,0,VALID,94.0427,VALID,0,VALID,23.4493,VALID,44,VALID,0.746484,
2009-05-13, 01:46:04,VALID,997.1,VALID,0,VALID,94.0351,VALID,0,VALID,23.4085,VALID,45,VALID,1.00781,
2009-05-13, 01:47:04,VALID,997.042,VALID,0,VALID,94.0351,VALID,0,VALID,23.4493,VALID,47,VALID,1.01914,
2009-05-13, 01:48:04,VALID,997.008,VALID,0,VALID,93.9893,VALID,0,VALID,23.4493,VALID,47,VALID,0.842188,
2009-05-13, 01:49:04,VALID,997.023,VALID,0,VALID,93.9359,VALID,0,VALID,23.428,VALID,39,VALID,0.446094,
2009-05-13, 01:50:04,VALID,997.001,VALID,0,VALID,93.9588,VALID,0,VALID,23.4493,VALID,17,VALID,0.554688,
2009-05-13, 01:51:04,VALID,997.001,VALID,0,VALID,93.974,VALID,0,VALID,23.4298,VALID,12,VALID,0.535937,
2009-05-13, 01:52:04,VALID,997.001,VALID,0,VALID,93.9893,VALID,0,VALID,23.4298,VALID,12,VALID,0.495703,
2009-05-13, 01:53:04,VALID,996.985,VALID,0,VALID,93.9817,VALID,0,VALID,23.4085,VALID,17,VALID,0.584766,
2009-05-13, 01:54:04,VALID,996.947,VALID,0,VALID,93.9969,VALID,0,VALID,23.4085,VALID,53,VALID,0.563281,
2009-05-13, 01:55:04,VALID,996.975,VALID,0,VALID,94.0198,VALID,0,VALID,23.4298,VALID,83,VALID,0.728906,
2009-05-13, 01:56:04,VALID,996.994,VALID,0,VALID,94.0351,VALID,0,VALID,23.4103,VALID,103,VALID,0.537109,
2009-05-13, 01:57:04,VALID,996.947,VALID,0,VALID,94.0351,VALID,0,VALID,23.4103,VALID,103,VALID,0.530859,
2009-05-13, 01:58:04,VALID,996.944,VALID,0,VALID,94.058,VALID,0,VALID,23.389,VALID,103,VALID,0.387109,
2009-05-13, 01:59:04,VALID,996.982,VALID,0,VALID,94.0656,VALID,0,VALID,23.389,VALID,103,VALID,0.192969,
2009-05-13, 02:00:04,VALID,996.961,VALID,0,VALID,94.058,VALID,0,VALID,23.3695,VALID,103,VALID,0,
2009-05-13, 02:01:04,VALID,996.99,VALID,0,VALID,94.0656,VALID,0,VALID,23.3713,VALID,103,VALID,0,
2009-05-13, 02:02:04,VALID,996.964,VALID,0,VALID,94.1114,VALID,0,VALID,23.3695,VALID,103,VALID,0,
2009-05-13, 02:03:04,VALID,996.959,VALID,0,VALID,94.1343,VALID,0,VALID,23.35,VALID,103,VALID,0.235547,
2009-05-13, 02:04:04,VALID,996.975,VALID,0,VALID,94.1419,VALID,0,VALID,23.3713,VALID,103,VALID,0,
2009-05-13, 02:05:04,VALID,996.943,VALID,0,VALID,94.1419,VALID,0,VALID,23.3713,VALID,78,VALID,0,
2009-05-13, 02:06:04,VALID,996.927,VALID,0,VALID,94.1648,VALID,0,VALID,23.35,VALID,56,VALID,0,
2009-05-13, 02:07:04,VALID,996.886,VALID,0,VALID,94.2182,VALID,0,VALID,23.3713,VALID,53,VALID,0.84375,
2009-05-13, 02:08:04,VALID,996.929,VALID,0,VALID,94.1343,VALID,0,VALID,23.35,VALID,53,VALID,0.930078,
2009-05-13, 02:09:04,VALID,996.907,VALID,0,VALID,94.119,VALID,0,VALID,23.3305,VALID,54,VALID,0.866406,
2009-05-13, 02:10:04,VALID,996.895,VALID,0,VALID,94.1343,VALID,0,VALID,23.3518,VALID,76,VALID,0.720703,
2009-05-13, 02:11:04,VALID,996.887,VALID,0,VALID,94.1877,VALID,0,VALID,23.3518,VALID,86,VALID,0.685156,
2009-05-13, 02:12:04,VALID,996.885,VALID,0,VALID,94.1648,VALID,0,VALID,23.3713,VALID,88,VALID,0.347266,
2009-05-13, 02:13:04,VALID,996.872,VALID,0,VALID,94.18,VALID,0,VALID,23.35,VALID,88,VALID,0.223438,
2009-05-13, 02:14:04,VALID,996.874,VALID,0,VALID,94.2334,VALID,0,VALID,23.3908,VALID,88,VALID,0.280078,
2009-05-13, 02:15:04,VALID,996.855,VALID,0,VALID,94.2411,VALID,0,VALID,23.3695,VALID,102,VALID,0.438281,
2009-05-13, 02:16:04,VALID,996.82,VALID,0,VALID,94.2716,VALID,0,VALID,23.4103,VALID,122,VALID,0.459375,
2009-05-13, 02:17:04,VALID,996.797,VALID,0,VALID,94.2792,VALID,0,VALID,23.4103,VALID,122,VALID,0.471875,
2009-05-13, 02:18:04,VALID,996.781,VALID,0,VALID,94.264,VALID,0,VALID,23.4103,VALID,122,VALID,0.403516,
2009-05-13, 02:19:04,VALID,996.767,VALID,0,VALID,94.2182,VALID,0,VALID,23.4298,VALID,91,VALID,0.642578,
2009-05-13, 02:20:04,VALID,996.794,VALID,0,VALID,94.1953,VALID,0,VALID,23.4085,VALID,89,VALID,0.181641,
2009-05-13, 02:21:04,VALID,996.738,VALID,0,VALID,94.1495,VALID,0,VALID,23.4103,VALID,89,VALID,0.185156,
2009-05-13, 02:22:04,VALID,996.751,VALID,0,VALID,94.119,VALID,0,VALID,23.4103,VALID,89,VALID,0.0488281,
2009-05-13, 02:23:04,VALID,996.764,VALID,0,VALID,94.1037,VALID,0,VALID,23.4085,VALID,89,VALID,0.138672,
2009-05-13, 02:24:04,VALID,996.743,VALID,0,VALID,94.1419,VALID,0,VALID,23.4085,VALID,89,VALID,0.506641,
2009-05-13, 02:25:04,VALID,996.731,VALID,0,VALID,94.1495,VALID,0,VALID,23.4298,VALID,89,VALID,0.426172,
2009-05-13, 02:26:04,VALID,996.756,VALID,0,VALID,94.1419,VALID,0,VALID,23.4493,VALID,69,VALID,0.922266,
2009-05-13, 02:27:04,VALID,996.77,VALID,0,VALID,94.1114,VALID,0,VALID,23.428,VALID,42,VALID,0.617578,
2009-05-13, 02:28:04,VALID,996.788,VALID,0,VALID,93.9893,VALID,0,VALID,23.4493,VALID,34,VALID,0.596484,
2009-05-13, 02:29:04,VALID,996.807,VALID,0,VALID,93.9359,VALID,0,VALID,23.4085,VALID,5,VALID,0.886328,
2009-05-13, 02:30:04,VALID,996.792,VALID,0,VALID,93.9359,VALID,0,VALID,23.4085,VALID,5,VALID,0.576563,
2009-05-13, 02:31:04,VALID,996.816,VALID,0,VALID,93.9511,VALID,0,VALID,23.4298,VALID,5,VALID,0.614844,
2009-05-13, 02:32:04,VALID,996.841,VALID,0,VALID,93.9359,VALID,0,VALID,23.4085,VALID,5,VALID,0.719141,
2009-05-13, 02:33:04,VALID,996.835,VALID,0,VALID,93.9283,VALID,0,VALID,23.4298,VALID,5,VALID,0.668359,
2009-05-13, 02:34:04,VALID,996.841,VALID,0,VALID,93.913,VALID,0,VALID,23.4085,VALID,5,VALID,0.576563,
2009-05-13, 02:35:04,VALID,996.844,VALID,0,VALID,93.9435,VALID,0,VALID,23.389,VALID,5,VALID,0.509375,
2009-05-13, 02:36:04,VALID,996.829,VALID,0,VALID,93.9206,VALID,0,VALID,23.3695,VALID,5,VALID,0.619531,
2009-05-13, 02:37:04,VALID,996.831,VALID,0,VALID,93.9435,VALID,0,VALID,23.3713,VALID,5,VALID,0.569531,
2009-05-13, 02:38:04,VALID,996.858,VALID,0,VALID,93.9435,VALID,0,VALID,23.3518,VALID,12,VALID,0.558984,
2009-05-13, 02:39:04,VALID,996.878,VALID,0,VALID,93.9893,VALID,0,VALID,23.3305,VALID,26,VALID,0.968359,
2009-05-13, 02:40:04,VALID,996.88,VALID,0,VALID,94.0122,VALID,0,VALID,23.3305,VALID,48,VALID,1.04258,
2009-05-13, 02:41:04,VALID,996.905,VALID,0,VALID,94.0351,VALID,0,VALID,23.3305,VALID,46,VALID,0.958984,
2009-05-13, 02:42:04,VALID,996.916,VALID,0,VALID,94.0351,VALID,0,VALID,23.35,VALID,49,VALID,0.948438,
2009-05-13, 02:43:04,VALID,996.914,VALID,0,VALID,94.0503,VALID,0,VALID,23.3518,VALID,61,VALID,0.938281,
2009-05-13, 02:44:04,VALID,996.929,VALID,0,VALID,94.0808,VALID,0,VALID,23.35,VALID,61,VALID,0.749219,
2009-05-13, 02:45:04,VALID,996.921,VALID,0,VALID,94.0885,VALID,0,VALID,23.3305,VALID,78,VALID,0.5875,
2009-05-13, 02:46:04,VALID,996.881,VALID,0,VALID,94.0503,VALID,0,VALID,23.3713,VALID,72,VALID,0.609766,
2009-05-13, 02:47:04,VALID,996.881,VALID,0,VALID,94.0503,VALID,0,VALID,23.35,VALID,72,VALID,0.670703,
2009-05-13, 02:48:04,VALID,996.89,VALID,0,VALID,94.0656,VALID,0,VALID,23.3305,VALID,68,VALID,0.549609,
2009-05-13, 02:49:04,VALID,996.887,VALID,0,VALID,94.0732,VALID,0,VALID,23.3518,VALID,44,VALID,0.738672,
2009-05-13, 02:50:04,VALID,996.887,VALID,0,VALID,94.0961,VALID,0,VALID,23.3305,VALID,40,VALID,0.744922,
2009-05-13, 02:51:04,VALID,996.896,VALID,0,VALID,94.0961,VALID,0,VALID,23.3518,VALID,40,VALID,0.580078,
2009-05-13, 02:52:04,VALID,996.918,VALID,0,VALID,94.119,VALID,0,VALID,23.35,VALID,19,VALID,0.731641,
2009-05-13, 02:53:04,VALID,996.936,VALID,0,VALID,94.1419,VALID,0,VALID,23.3518,VALID,8,VALID,0.819141,
2009-05-13, 02:54:04,VALID,996.921,VALID,0,VALID,94.18,VALID,0,VALID,23.35,VALID,8,VALID,0.470703,
2009-05-13, 02:55:04,VALID,996.935,VALID,0,VALID,94.1877,VALID,0,VALID,23.3695,VALID,8,VALID,0.174219,
2009-05-13, 02:56:04,VALID,996.926,VALID,0,VALID,94.1953,VALID,0,VALID,23.389,VALID,8,VALID,0.247656,
2009-05-13, 02:57:04,VALID,996.895,VALID,0,VALID,94.2105,VALID,0,VALID,23.389,VALID,8,VALID,0.152734,
2009-05-13, 02:58:04,VALID,996.938,VALID,0,VALID,94.1953,VALID,0,VALID,23.4103,VALID,8,VALID,0.116016,
2009-05-13, 02:59:04,VALID,996.927,VALID,0,VALID,94.18,VALID,0,VALID,23.3695,VALID,8,VALID,0,
2009-05-13, 03:00:04,VALID,996.985,VALID,0,VALID,94.1877,VALID,0,VALID,23.389,VALID,8,VALID,0,
2009-05-13, 03:01:04,VALID,996.965,VALID,0,VALID,94.1953,VALID,0,VALID,23.3695,VALID,8,VALID,0.518359,
2009-05-13, 03:02:04,VALID,996.936,VALID,0,VALID,94.2258,VALID,0,VALID,23.389,VALID,169,VALID,1.05703,
2009-05-13, 03:03:04,VALID,996.944,VALID,0,VALID,94.2792,VALID,0,VALID,23.4493,VALID,147,VALID,1.24375,
2009-05-13, 03:04:04,VALID,996.971,VALID,0,VALID,94.2182,VALID,0,VALID,23.4493,VALID,131,VALID,1.34805,
2009-05-13, 03:05:04,VALID,996.952,VALID,0,VALID,94.2716,VALID,0,VALID,23.4866,VALID,129,VALID,1.29766,
2009-05-13, 03:06:04,VALID,996.944,VALID,0,VALID,94.2105,VALID,0,VALID,23.5274,VALID,125,VALID,0.835938,
2009-05-13, 03:07:04,VALID,996.962,VALID,0,VALID,94.1266,VALID,0,VALID,23.5469,VALID,128,VALID,0.648047,
2009-05-13, 03:08:04,VALID,996.977,VALID,0,VALID,94.0885,VALID,0,VALID,23.5451,VALID,129,VALID,0.318359,
2009-05-13, 03:09:04,VALID,997.02,VALID,0,VALID,94.0427,VALID,0,VALID,23.5451,VALID,185,VALID,0.25,
2009-05-13, 03:10:04,VALID,997.007,VALID,0,VALID,94.0122,VALID,0,VALID,23.5859,VALID,185,VALID,0.537109,
2009-05-13, 03:11:04,VALID,997.024,VALID,0,VALID,93.9664,VALID,0,VALID,23.5859,VALID,185,VALID,0.200781,
2009-05-13, 03:12:04,VALID,997.037,VALID,0,VALID,93.9817,VALID,0,VALID,23.6054,VALID,185,VALID,0.229297,
2009-05-13, 03:13:04,VALID,997.063,VALID,0,VALID,94.0198,VALID,0,VALID,23.625,VALID,155,VALID,0.639844,
2009-05-13, 03:14:04,VALID,997.045,VALID,0,VALID,94.0045,VALID,0,VALID,23.625,VALID,153,VALID,0.803516,
2009-05-13, 03:15:04,VALID,997.028,VALID,0,VALID,93.9435,VALID,0,VALID,23.6445,VALID,127,VALID,0.624219,
2009-05-13, 03:16:04,VALID,996.997,VALID,0,VALID,93.8901,VALID,0,VALID,23.6445,VALID,126,VALID,0.472656,
2009-05-13, 03:17:04,VALID,997.004,VALID,0,VALID,93.8367,VALID,0,VALID,23.6427,VALID,126,VALID,0.282422,
2009-05-13, 03:18:04,VALID,997.007,VALID,0,VALID,93.7909,VALID,0,VALID,23.6427,VALID,120,VALID,0.398828,
2009-05-13, 03:19:04,VALID,996.933,VALID,0,VALID,93.7299,VALID,0,VALID,23.664,VALID,56,VALID,0.753906,
2009-05-13, 03:20:04,VALID,996.987,VALID,0,VALID,93.6688,VALID,0,VALID,23.664,VALID,75,VALID,1.05195,
2009-05-13, 03:21:04,VALID,996.97,VALID,0,VALID,93.6307,VALID,0,VALID,23.6835,VALID,89,VALID,0.707422,
2009-05-13, 03:22:04,VALID,996.955,VALID,0,VALID,93.6078,VALID,0,VALID,23.664,VALID,89,VALID,0.607031,
2009-05-13, 03:23:04,VALID,996.983,VALID,0,VALID,93.6002,VALID,0,VALID,23.664,VALID,82,VALID,0.525781,
2009-05-13, 03:24:04,VALID,997.031,VALID,0,VALID,93.5697,VALID,0,VALID,23.6445,VALID,76,VALID,0.423047,
2009-05-13, 03:25:04,VALID,996.997,VALID,0,VALID,93.5773,VALID,0,VALID,23.6445,VALID,60,VALID,0.469531,
2009-05-13, 03:26:04,VALID,996.993,VALID,0,VALID,93.5468,VALID,0,VALID,23.6427,VALID,60,VALID,0.388281,
2009-05-13, 03:27:04,VALID,997.002,VALID,0,VALID,93.5391,VALID,0,VALID,23.6445,VALID,59,VALID,0.417188,
2009-05-13, 03:28:04,VALID,996.975,VALID,0,VALID,93.5468,VALID,0,VALID,23.6036,VALID,58,VALID,0.368359,
2009-05-13, 03:29:04,VALID,996.968,VALID,0,VALID,93.5849,VALID,0,VALID,23.625,VALID,58,VALID,0.4,
2009-05-13, 03:30:04,VALID,996.976,VALID,0,VALID,93.5926,VALID,0,VALID,23.6036,VALID,58,VALID,0.216797,
2009-05-13, 03:31:04,VALID,996.953,VALID,0,VALID,93.6307,VALID,0,VALID,23.625,VALID,102,VALID,0.499219,
2009-05-13, 03:32:04,VALID,996.939,VALID,0,VALID,93.6231,VALID,0,VALID,23.6232,VALID,103,VALID,0.173828,
2009-05-13, 03:33:04,VALID,996.935,VALID,0,VALID,93.5926,VALID,0,VALID,23.6445,VALID,103,VALID,0.212891,
2009-05-13, 03:34:04,VALID,996.927,VALID,0,VALID,93.6078,VALID,0,VALID,23.664,VALID,103,VALID,0.232422,
2009-05-13, 03:35:04,VALID,996.908,VALID,0,VALID,93.5697,VALID,0,VALID,23.6445,VALID,99,VALID,0.448828,
2009-05-13, 03:36:04,VALID,996.891,VALID,0,VALID,93.44,VALID,0,VALID,23.664,VALID,80,VALID,0.707422,
2009-05-13, 03:37:04,VALID,996.882,VALID,0,VALID,93.4018,VALID,0,VALID,23.6622,VALID,65,VALID,0.561719,
2009-05-13, 03:38:04,VALID,996.873,VALID,0,VALID,93.2874,VALID,0,VALID,23.703,VALID,60,VALID,0.528906,
2009-05-13, 03:39:04,VALID,996.897,VALID,0,VALID,93.2111,VALID,0,VALID,23.6817,VALID,59,VALID,0.281641,
2009-05-13, 03:40:04,VALID,996.896,VALID,0,VALID,93.1729,VALID,0,VALID,23.7012,VALID,18,VALID,0.619141,
2009-05-13, 03:41:04,VALID,996.89,VALID,0,VALID,93.1958,VALID,0,VALID,23.7207,VALID,18,VALID,0.819922,
2009-05-13, 03:42:04,VALID,996.924,VALID,0,VALID,93.1882,VALID,0,VALID,23.742,VALID,18,VALID,0.723047,
2009-05-13, 03:43:04,VALID,996.92,VALID,0,VALID,93.1958,VALID,0,VALID,23.742,VALID,18,VALID,0.746094,
2009-05-13, 03:44:04,VALID,996.938,VALID,0,VALID,93.2263,VALID,0,VALID,23.7207,VALID,18,VALID,0.580469,
2009-05-13, 03:45:04,VALID,996.944,VALID,0,VALID,93.2645,VALID,0,VALID,23.742,VALID,18,VALID,0.856641,
2009-05-13, 03:46:04,VALID,996.934,VALID,0,VALID,93.2645,VALID,0,VALID,23.7225,VALID,34,VALID,1.0332,
2009-05-13, 03:47:04,VALID,996.926,VALID,0,VALID,93.2721,VALID,0,VALID,23.7012,VALID,36,VALID,1.14805,